[[{"header":{"parameterUnit":"m.s-1","parameterCategory":1,"la1":30.2991,"la2":30.254,"lo1":-89.0895,"lo2":-89.0444,"dy":0.0017,"dx":0.0017,"nx":28,"ny":28,"refTime":"2024-10-02T09:00:00:Z","depth":0,"parameterNumber":2,"parameterNumberName":"U-component_of_WINDS"},"data":[0,0,0,0,0,0,0,0,0,0,0,0,0,0,0,0,0,0,0,0,0,0,0,0,0,0,0,0,0,0,0,0,0,0,0,0,0,0,0,0,0,0,0,0,0,0,0,0,0,0,0,0,0,0,0,0,0,0,-1.8159,-1.8159,0,-1.8165,-1.8165,-1.8165,-1.8141,-1.814,-1.8139,-1.8139,-1.8144,-1.8145,-1.8146,0,0,0,0,0,0,0,0,0,0,0,0,0,-1.8127,-1.8127,-1.8159,-1.8159,-1.8159,-1.8164,-1.8165,-1.8165,-1.8141,-1.814,-1.8139,-1.8138,-1.8144,-1.8145,-1.8146,0,0,0,0,0,0,0,0,0,0,0,0,0,-1.8137,-1.8128,-1.8159,-1.8148,-1.8147,-1.8164,-1.8165,-1.8165,-1.8141,-1.814,-1.8139,-1.8138,-1.8144,-1.8145,-1.8146,-1.8175,0,0,-1.815,-1.815,0,0,0,0,0,0,0,0,-1.8137,-1.8139,-1.8149,-1.8148,-1.8147,-1.8151,-1.8155,-1.8168,-1.8141,-1.8143,-1.8139,-1.8138,-1.8147,-1.8148,-1.8152,-1.8175,-1.8175,-1.815,-1.8151,-1.8151,-1.8151,0,0,0,0,0,0,0,-1.8136,-1.8138,-1.8161,-1.8149,-1.8148,-1.8142,-1.8143,-1.8158,-1.8151,-1.8143,-1.8141,-1.8142,-1.8147,-1.815,-1.8152,-1.8175,-1.815,-1.8151,-1.8152,-1.8152,-1.8223,-1.8224,0,0,0,0,0,0,-1.8137,-1.8138,-1.8161,-1.8161,-1.8139,-1.8144,-1.8144,-1.8151,-1.8151,-1.815,-1.8143,-1.8141,-1.8149,-1.815,-1.8152,-1.8186,-1.8151,-1.8152,-1.8153,-1.8221,-1.8223,-1.8224,0,0,0,0,0,0,-1.8136,-1.8139,-1.8161,-1.8149,-1.8151,-1.8145,-1.8153,-1.8152,-1.8155,-1.8151,-1.815,-1.8148,-1.8148,-1.815,-1.8169,-1.8185,-1.8153,-1.8154,-1.822,-1.8222,-1.8223,-1.8253,0,0,0,0,0,0,-1.8135,-1.8139,-1.815,-1.8149,-1.8152,-1.8178,-1.8154,-1.8152,-1.8157,-1.8155,-1.8156,-1.8155,-1.8147,-1.8168,-1.817,-1.8186,-1.8155,-1.8219,-1.8221,-1.8223,-1.8251,-1.8256,-1.826,0,0,0,0,0,-1.8134,-1.8158,-1.8151,-1.8153,-1.8165,-1.8179,-1.8181,-1.8172,-1.8159,-1.817,-1.8167,-1.8155,-1.8183,-1.817,-1.8173,-1.8189,-1.8218,-1.822,-1.8223,-1.8249,-1.8255,-1.826,0,0,0,0,0,0,-1.816,-1.8158,-1.8149,-1.8174,-1.8177,-1.8175,-1.8189,-1.8179,-1.8186,-1.8183,-1.8172,-1.8172,-1.8193,-1.8193,-1.8178,-1.8217,-1.8198,-1.8201,-1.8217,-1.8222,-1.8227,-1.8227,-1.8156,0,0,0,0,0,-1.8169,-1.818,-1.8177,-1.8199,-1.8201,-1.8195,-1.82,-1.8193,-1.8196,-1.8197,-1.8196,-1.8199,-1.8209,-1.8215,-1.8224,-1.825,-1.825,-1.8263,-1.8268,-1.8272,-1.8275,-1.8289,-1.8295,-1.8232,-1.8232,-1.8232,0,0,-1.8186,-1.8186,-1.8194,-1.8204,-1.8206,-1.8218,-1.8196,-1.821,-1.8219,-1.8199,-1.8218,-1.8217,-1.822,-1.8243,-1.8253,-1.8243,-1.8292,-1.8275,-1.8278,-1.8279,-1.8293,-1.8299,-1.8304,-1.8234,-1.8234,-1.8234,0,0,-1.8225,-1.8226,-1.8245,-1.8247,-1.825,-1.8245,-1.825,-1.825,-1.8248,-1.8267,-1.8253,-1.8263,-1.828,-1.8283,-1.8286,-1.8326,-1.8315,-1.8329,-1.8353,-1.8368,-1.8373,-1.8377,-1.8392,-1.8397,-1.8332,-1.8332,-1.8332,0,-1.8247,-1.8265,-1.8255,-1.827,-1.8275,-1.8258,-1.8277,-1.8279,-1.8285,-1.8289,-1.8277,-1.8298,-1.8299,-1.8323,-1.8333,-1.8336,-1.8341,-1.8329,-1.8373,-1.8377,-1.8381,-1.8395,-1.8401,-1.8334,-1.8334,-1.8333,-1.8333,0,-1.8292,-1.8305,-1.8319,-1.8325,-1.8332,-1.8348,-1.8341,-1.8348,-1.8341,-1.8338,-1.8357,-1.8357,-1.8365,-1.837,-1.8363,-1.8393,-1.8387,-1.8375,-1.8355,-1.8389,-1.8402,-1.8407,-1.8336,-1.8336,-1.8335,-1.8335,0,0,-1.8348,-1.8348,-1.8354,-1.8357,-1.8359,-1.8368,-1.8384,-1.8393,-1.84,-1.8404,-1.8417,-1.8432,-1.842,-1.8424,-1.8417,-1.843,-1.8462,-1.8415,-1.8415,-1.8425,-1.8496,-1.8506,-1.8513,-1.8454,-1.8455,-1.8456,-1.8496,0,-1.8386,-1.8414,-1.8406,-1.8434,-1.8446,-1.843,-1.8443,-1.8446,-1.8444,-1.8453,-1.845,-1.8461,-1.8444,-1.8447,-1.8458,-1.8456,-1.8476,-1.8453,-1.8467,-1.8468,-1.8468,-1.852,-1.853,-1.8568,-1.8501,-1.8502,-1.8503,0,-1.8435,-1.8442,-1.8472,-1.8472,-1.8477,-1.8489,-1.8497,-1.8506,-1.8509,-1.8506,-1.8511,-1.8501,-1.8516,-1.8496,-1.8518,-1.8502,-1.8507,-1.8507,-1.8508,-1.851,-1.8488,-1.8524,-1.858,-1.8586,-1.8511,-1.851,-1.8509,0,-1.8474,-1.8491,-1.851,-1.8513,-1.8514,-1.8523,-1.8524,-1.8526,-1.8532,-1.8538,-1.8542,-1.8549,-1.8554,-1.856,-1.8553,-1.8539,-1.8576,-1.8555,-1.8574,-1.8575,-1.8584,-1.8583,-1.8643,-1.8586,-1.8585,-1.8585,-1.8585,0,-1.8519,-1.8538,-1.8528,-1.854,-1.8561,-1.8551,-1.8571,-1.857,-1.8572,-1.8583,-1.857,-1.8581,-1.857,-1.858,-1.8574,-1.8594,-1.8595,-1.8594,-1.8592,-1.8596,-1.8596,-1.86,-1.8597,-1.8587,-1.8587,-1.8586,-1.8586,0,-1.8567,-1.8561,-1.8581,-1.858,-1.858,-1.8596,-1.8595,-1.8606,-1.8602,-1.8617,-1.862,-1.8615,-1.8626,-1.8619,-1.863,-1.8626,-1.8652,-1.8646,-1.8651,-1.865,-1.867,-1.8669,-1.8735,-1.8743,-1.868,-1.868,-1.8681,0,-1.8596,-1.861,-1.8611,-1.8618,-1.862,-1.8631,-1.8637,-1.8627,-1.8634,-1.8639,-1.8649,-1.866,-1.8668,-1.8686,-1.8683,-1.8692,-1.8687,-1.8709,-1.8688,-1.8691,-1.8688,-1.8688,-1.869,-1.8714,-1.8715,-1.8715,-1.8716,0,-1.8649,-1.8646,-1.8655,-1.8664,-1.8671,-1.8677,-1.8682,-1.8689,-1.8679,-1.8687,-1.8699,-1.8705,-1.8717,-1.8727,-1.8735,-1.8735,-1.8724,-1.8722,-1.8727,-1.8732,-1.8735,-1.8734,-1.8664,-1.8721,-1.8721,-1.872,-1.872,-1.872,-1.8689,-1.8701,-1.8704,-1.8715,-1.8718,-1.8723,-1.8733,-1.8731,-1.8741,-1.875,-1.8743,-1.8757,-1.876,-1.8769,-1.877,-1.8781,-1.8772,-1.8779,-1.8781,-1.8784,-1.8787,-1.8732,-1.8782,-1.8782,-1.8782,-1.8782,-1.8782,0,-1.8743,-1.8744,-1.8754,-1.8761,-1.877,-1.8759,-1.8763,-1.8771,-1.8784,-1.8787,-1.8795,-1.8809,-1.8819,-1.8816,-1.8826,-1.8835,-1.883,-1.8838,-1.8837,-1.8838,-1.8794,-1.8789,-1.8841,-1.8841,-1.8841,-1.8841,-1.8841,-1.8841,-1.8772,-1.8792,-1.8789,-1.881,-1.881,-1.8824,-1.8828,-1.8833,-1.8835,-1.8851,-1.886,-1.8858,-1.8859,-1.8868,-1.8877,-1.8876,-1.888,-1.889,-1.8887,-1.8847,-1.8841,-1.8835,-1.8831,-1.8891,-1.8891,-1.893,-1.8931,-1.8931]},{"header":{"parameterUnit":"m.s-1","parameterCategory":1,"la1":30.2991,"la2":30.254,"lo1":-89.0895,"lo2":-89.0444,"dy":0.0017,"dx":0.0017,"nx":28,"ny":28,"refTime":"2024-10-02T09:00:00:Z","depth":0,"parameterNumber":3,"parameterNumberName":"V-component_of_WINDS"},"data":[0,0,0,0,0,0,0,0,0,0,0,0,0,0,0,0,0,0,0,0,0,0,0,0,0,0,0,0,0,0,0,0,0,0,0,0,0,0,0,0,0,0,0,0,0,0,0,0,0,0,0,0,0,0,0,0,0,0,-4.5525,-4.5525,0,-4.5518,-4.5518,-4.5518,-4.5461,-4.5459,-4.5458,-4.5456,-4.5449,-4.545,-4.5451,0,0,0,0,0,0,0,0,0,0,0,0,0,-4.5489,-4.549,-4.5525,-4.5525,-4.5525,-4.5518,-4.5518,-4.5518,-4.5461,-4.5459,-4.5457,-4.5456,-4.5448,-4.545,-4.5451,0,0,0,0,0,0,0,0,0,0,0,0,0,-4.5496,-4.5491,-4.5525,-4.5496,-4.5493,-4.5518,-4.5518,-4.5518,-4.5461,-4.5459,-4.5457,-4.5455,-4.5448,-4.5449,-4.5451,-4.5504,0,0,-4.5456,-4.5457,0,0,0,0,0,0,0,0,-4.5496,-4.5497,-4.55,-4.5498,-4.5495,-4.5488,-4.5503,-4.5513,-4.5462,-4.5473,-4.5456,-4.5454,-4.5463,-4.5464,-4.5467,-4.5504,-4.5503,-4.5456,-4.5457,-4.5458,-4.5459,0,0,0,0,0,0,0,-4.5495,-4.5497,-4.5522,-4.55,-4.5497,-4.5483,-4.5482,-4.5504,-4.548,-4.5472,-4.5468,-4.5468,-4.5462,-4.5466,-4.5466,-4.5503,-4.5456,-4.5458,-4.5459,-4.5459,-4.5584,-4.5586,0,0,0,0,0,0,-4.5499,-4.5497,-4.5523,-4.5522,-4.549,-4.5485,-4.5484,-4.5492,-4.548,-4.5476,-4.547,-4.5465,-4.5464,-4.5465,-4.5466,-4.5528,-4.5458,-4.546,-4.5461,-4.5582,-4.5584,-4.5587,0,0,0,0,0,0,-4.5498,-4.5502,-4.5523,-4.5509,-4.551,-4.5488,-4.5498,-4.5493,-4.5497,-4.5478,-4.5474,-4.5478,-4.5462,-4.5464,-4.5495,-4.5527,-4.546,-4.5462,-4.5579,-4.5582,-4.5586,-4.5652,0,0,0,0,0,0,-4.5498,-4.5502,-4.5522,-4.551,-4.5511,-4.5552,-4.55,-4.5495,-4.55,-4.5494,-4.5485,-4.5481,-4.5461,-4.5493,-4.5497,-4.5528,-4.5463,-4.5576,-4.558,-4.5585,-4.5646,-4.5657,-4.5666,0,0,0,0,0,-4.5497,-4.554,-4.5523,-4.5526,-4.5535,-4.5554,-4.5555,-4.5531,-4.5503,-4.5523,-4.5511,-4.5482,-4.5523,-4.5497,-4.5501,-4.5533,-4.5574,-4.5579,-4.5584,-4.5642,-4.5655,-4.5665,0,0,0,0,0,0,-4.5556,-4.5538,-4.5519,-4.5559,-4.5559,-4.5545,-4.5569,-4.5545,-4.5552,-4.5546,-4.5515,-4.5513,-4.555,-4.5544,-4.5516,-4.5584,-4.5543,-4.5549,-4.5586,-4.5598,-4.5607,-4.5608,-4.5465,0,0,0,0,0,-4.5574,-4.5591,-4.5574,-4.5612,-4.5612,-4.5591,-4.5598,-4.5579,-4.5578,-4.5577,-4.5567,-4.5566,-4.5579,-4.5588,-4.5599,-4.5645,-4.5643,-4.5669,-4.5679,-4.5687,-4.5693,-4.5718,-4.573,-4.5604,-4.5604,-4.5604,0,0,-4.561,-4.5603,-4.5615,-4.5623,-4.5621,-4.5639,-4.5591,-4.5612,-4.5626,-4.558,-4.561,-4.5603,-4.56,-4.564,-4.5656,-4.5636,-4.5727,-4.5693,-4.57,-4.5701,-4.5725,-4.5737,-4.5747,-4.5607,-4.5607,-4.5606,0,0,-4.5687,-4.5683,-4.5715,-4.5713,-4.571,-4.5696,-4.5704,-4.5693,-4.5687,-4.5716,-4.5683,-4.5698,-4.5721,-4.5721,-4.5723,-4.5802,-4.5776,-4.5806,-4.5857,-4.5882,-4.5892,-4.59,-4.5929,-4.594,-4.5812,-4.5812,-4.5812,0,-4.5734,-4.576,-4.5734,-4.5758,-4.5763,-4.5723,-4.5755,-4.5755,-4.5755,-4.576,-4.5737,-4.5765,-4.576,-4.58,-4.5819,-4.5822,-4.5831,-4.5807,-4.5892,-4.5901,-4.5909,-4.5936,-4.5947,-4.5816,-4.5816,-4.5815,-4.5815,0,-4.5818,-4.5837,-4.5863,-4.5865,-4.5873,-4.5901,-4.5879,-4.589,-4.5871,-4.5859,-4.589,-4.5883,-4.5892,-4.59,-4.5881,-4.5938,-4.5925,-4.5898,-4.5857,-4.5925,-4.595,-4.596,-4.5821,-4.582,-4.5819,-4.5818,0,0,-4.5931,-4.592,-4.593,-4.5931,-4.5925,-4.5939,-4.5966,-4.5975,-4.5986,-4.5988,-4.601,-4.603,-4.6005,-4.6009,-4.599,-4.6012,-4.6076,-4.5981,-4.5981,-4.6,-4.6139,-4.616,-4.6172,-4.6058,-4.606,-4.6062,-4.6139,0,-4.6006,-4.6051,-4.6028,-4.6076,-4.6094,-4.6057,-4.608,-4.6079,-4.6069,-4.6083,-4.6072,-4.6087,-4.6053,-4.6055,-4.6075,-4.6064,-4.6103,-4.6058,-4.6079,-4.608,-4.6081,-4.6185,-4.6207,-4.6281,-4.6149,-4.615,-4.6151,0,-4.6098,-4.6106,-4.6156,-4.6148,-4.6155,-4.6176,-4.6184,-4.6197,-4.6196,-4.6187,-4.6192,-4.6168,-4.6194,-4.6153,-4.6188,-4.6158,-4.6165,-4.6161,-4.6164,-4.6165,-4.612,-4.619,-4.6304,-4.6315,-4.6166,-4.6165,-4.6164,0,-4.6177,-4.6199,-4.6232,-4.6234,-4.6226,-4.6242,-4.624,-4.6236,-4.6244,-4.625,-4.6255,-4.6264,-4.627,-4.6278,-4.6257,-4.6229,-4.6296,-4.6253,-4.629,-4.629,-4.6306,-4.6305,-4.6423,-4.631,-4.6309,-4.6309,-4.6309,0,-4.6263,-4.6296,-4.6268,-4.6288,-4.6324,-4.6298,-4.6333,-4.6326,-4.6324,-4.6343,-4.6311,-4.6329,-4.6301,-4.6316,-4.63,-4.6333,-4.6335,-4.6329,-4.6325,-4.6332,-4.6333,-4.6337,-4.6332,-4.6312,-4.6311,-4.6311,-4.631,0,-4.6357,-4.634,-4.6374,-4.6364,-4.6362,-4.6389,-4.638,-4.6399,-4.6387,-4.6411,-4.6415,-4.6397,-4.6413,-4.6394,-4.6408,-4.6398,-4.6442,-4.643,-4.6443,-4.644,-4.6478,-4.6475,-4.6602,-4.6618,-4.6494,-4.6496,-4.6497,0,-4.6414,-4.6438,-4.6431,-4.6442,-4.6441,-4.6458,-4.6466,-4.6442,-4.6452,-4.6453,-4.6472,-4.6486,-4.6496,-4.6524,-4.6512,-4.6523,-4.6511,-4.6555,-4.6513,-4.652,-4.6513,-4.6512,-4.6515,-4.6564,-4.6566,-4.6567,-4.6568,0,-4.6516,-4.6507,-4.652,-4.653,-4.6541,-4.6548,-4.6552,-4.6562,-4.6537,-4.655,-4.6567,-4.6575,-4.659,-4.6605,-4.6614,-4.661,-4.6586,-4.6581,-4.6591,-4.6599,-4.6606,-4.6604,-4.6467,-4.6579,-4.6578,-4.6577,-4.6576,-4.6576,-4.6593,-4.6614,-4.6613,-4.6628,-4.663,-4.6635,-4.6652,-4.6643,-4.6657,-4.6669,-4.6653,-4.6675,-4.6674,-4.6683,-4.6683,-4.6699,-4.668,-4.6694,-4.6697,-4.6701,-4.6707,-4.6603,-4.6701,-4.67,-4.67,-4.67,-4.6699,0,-4.6695,-4.6693,-4.6708,-4.6716,-4.6728,-4.6704,-4.6708,-4.672,-4.674,-4.6741,-4.6752,-4.6773,-4.6787,-4.6777,-4.6789,-4.6804,-4.6793,-4.6808,-4.6807,-4.6807,-4.6723,-4.6714,-4.6817,-4.6817,-4.6817,-4.6817,-4.6817,-4.6817,-4.6749,-4.6783,-4.6774,-4.6808,-4.6805,-4.6826,-4.6831,-4.6836,-4.6837,-4.6861,-4.6874,-4.6867,-4.6864,-4.6876,-4.6888,-4.6885,-4.6891,-4.6911,-4.6903,-4.6825,-4.6813,-4.6802,-4.6794,-4.6912,-4.6912,-4.6986,-4.6987,-4.6988]}]]